sat.trackr.live / text

‹ back to catalog

STARLINK-6140

NORAD 57111 · 2023-090L

PAYLOAD ACTIVE UNKNOWN

§ Identity

Operator
Country
US
Launch date
2023-06-23
Launch site
AFETR
Launch vehicle
Mass (kg)
RCS (m²)

Purposes: comms

External: N2YO · Heavens-Above · Gunter

§ Orbital elements

Epoch: 2026-05-25T04:34:35.961600Z

Period
94.27 min
Inclination
43.0019°
Eccentricity
0.0001330
Mean motion
15.27578346 rev/d
Perigee alt
482.1 km
Apogee alt
484.0 km
Semi-major
6,861.2 km
B*
3.3260e-5
RAAN
209.3928°
Arg perigee
272.2822°
Mean anomaly
87.7877°
Rev number
16,203

§ Raw data

STARLINK-61401 57111U 23090L   26145.19069400  .00000653  00000+0  33260-4 0  99972 57111  43.0019 209.3928 0001330 272.2822  87.7877 15.27578346162033

JSON: /api/v1/satellites/57111 · /tle

For live sub-satellite position, see the globe view (requires WebGL).

§ Visibility from observer

Set your observer location to see the next 7 days of passes ≥ 10°. The values pass through the URL so the page stays shareable.

No JS? Fill the form by hand. The geolocation button needs JavaScript.